Skip Page Navigation
NASA JPL Caltech
NASA Logo - Jet Propulsion Laboratory + View the NASA Portal
+ Near-Earth Object (NEO) Program
Search JPL
JPL Home Earth Solar System Stars & Galaxies Technology
JPL Solar System Dynamics
BODIES ORBITS EPHEMERIDES TOOLS PHYSICAL DATA DISCOVERY FAQ SITE MAP
JPL Small-Body Database Browser
Search: [ help ]  
44711 Carp (1999 TD4)
Classification: Main-belt Asteroid          SPK-ID: 2044711
Ephemeris | Orbit Diagram | Orbital Elements | Physical Parameters | Discovery Circumstances | Close-Approach Data ]

[ show orbit diagram ]
Orbital Elements at Epoch 2457000.5 (2014-Dec-09.0) TDB
Reference: JPL 9 (heliocentric ecliptic J2000)
 Element Value Uncertainty (1-sigma)   Units 
e .2358669654781191 5.3835e-08  
a 2.253942834819763 1.4806e-08 AU
q 1.722312178009676 1.2193e-07 AU
i 5.326715035794251 6.2974e-06 deg
node 307.5242611694567 6.5133e-05 deg
peri 281.1051526078533 6.634e-05 deg
M 292.9329480188961 1.5872e-05 deg
tp 2457230.760523977006
(2015-Jul-27.26052398)
5.5753e-05 JED
period 1235.98378314105
3.38
1.2179e-05
3.334e-08
d
yr
n .2912659574586967 2.87e-09 deg/d
Q 2.78557349162985 1.8299e-08 AU
  Orbit Determination Parameters
   # obs. used (total)      749  
   data-arc span      6204 days (16.99 yr)  
   first obs. used      1997-11-08  
   last obs. used      2014-11-03  
   planetary ephem.      DE431  
   SB-pert. ephem.      SB431-BIG16  
   condition code      0  
   fit RMS      .55556  
   data source      ORB  
   producer      Otto Matic  
   solution date      2014-Nov-10 14:24:20  

Additional Information
 Earth MOID = .723733 AU 
 T_jup = 3.582 
[ show covariance matrix ]

Ephemeris | Orbit Diagram | Orbital Elements | Physical Parameters | Discovery Circumstances | Close-Approach Data ]

Physical Parameter Table
Parameter Symbol Value Units Sigma Reference Notes
absolute magnitude H 14.7 mag n/a MPO279959  

44711 Carp           Discovered 1999 Oct. 3 by A. Nakamura at Kuma Kogen.
The Hiroshima Toyo Carp, founded in 1949, is a professional baseball team. Operated with capital from citizens of Hiroshima for the first 20 years, they are known as a unique "municipal team". The Carp has won the Central League six times and the Japan Series championships three times.
NOTE: some special characters may not display properly (any characters within {} are an attempt to place the proper accent above a character)
Reference: 20030806/MPCPages.arcLast Updated: 2003-10-02

[ show close-approach data ]
Alternate Designations
 1999 TD4 = 1988 EB3 
Ephemeris | Orbit Diagram | Orbital Elements | Physical Parameters | Discovery Circumstances | Close-Approach Data ]
ABOUT SSD CREDITS/AWARDS PRIVACY/COPYRIGHT GLOSSARY LINKS
FirstGov 2014-Nov-22 14:15 UT
(server date/time)  
NASA Home Page
Site Manager:   Donald K. Yeomans
Webmaster  Alan B. Chamberlin